Regional Weather Roundup
Issued by NWS

Home | Current Version | Previous Version | Text Only | Print | Product List | Glossary On
Versions: 1 2 3 4 5 6 7 8 9 10 11 12 13 14 15 16 17 18 19 20 21 22 23 24 25 26 27 28
000
ASCA42 TJSJ 230410
RWRPR
PUERTO RICO/U.S. VIRGIN ISLANDS HOURLY WEATHER ROUNDUP
NATIONAL WEATHER SERVICE SAN JUAN PR
1200 AM AST THU MAR 23 2017

PRZ001>002-007>008-010-230500-
PUERTO RICO

CITY           SKY/WX    TMP DP  RH WIND       PRES   REMARKS
SAN JUAN LMM   MOCLDY    75  72  88 SE5       30.00S
PONCE          MOCLDY    73  73 100 E6        30.05R
AGUADILLA      CLOUDY    72  70  94 SW5       30.02S
CEIBA          LGT RAIN  75  73  94 SW3       30.02F FOG
$$

VIZ001>002-230500-
U.S. VIRGIN ISLANDS

CITY           SKY/WX    TMP DP  RH WIND       PRES   REMARKS
CHARLOTTE AMA  CLOUDY    75  73  94 E9        29.99F
CHRISTIANSTED  MOCLDY    79  73  83 SE8       30.00F
$$

HOURLY WEATHER ROUNDUP FOR THE NEWS MEDIA

CITY           SKY/WX    TMP DP  RH WIND       PRES   REMARKS
ORLANDO        PTCLDY    71  64  78 NE7       30.15S
NEW YORK       CLEAR     25  -3  29 NW18G28   30.46R WCI  11
NEWARK         CLEAR     25  -1  32 NW12      30.47R WCI  14
CHICAGO        PTCLDY    30  19  63 E6        30.47S WCI  24
HARTFORD       CLEAR     21  -9  26 NW10G21   30.30R WCI  10
BOSTON         CLEAR     19  -6  33 NW26G36   30.33R WCI   1
DALLAS         CLEAR     71  62  73 SE13      30.08R
PHILADELPHIA   CLEAR     29  -5  22 N13       30.50R WCI  19
LOS ANGELES    PTCLDY    58  52  80 W22       29.99R
WASHINGTON DC  PTCLDY    35   6  29 N8        30.47S WCI  29



USA.gov is the U.S. government's official web portal to all federal, state and local government web resources and services.